Killington, USA 16 day weather forecast

Slopes altitude range 355 m - 1285m

Number of lifts: 20 Pistes: 135km

In some cases the lift and piste totals shown are for the ski domain (e.g. Three Valleys) rather than individual resort (e.g. Courchevel)

Overview

The 16 day weather forecast is fully updated 4 times every day.

    • Mon 22 APR 2019
    • Mon 22
    • 8C 11C
    • Tue 23 APR 2019
    • Tue 23
    • 7C 9C
    • Wed 24 APR 2019
    • Wed 24
    • 8C 13C
    • Thu 25 APR 2019
    • Thu 25
    • 2C 5C
    • Fri 26 APR 2019
    • Fri 26
    • 6C 10C
    • Sat 27 APR 2019
    • Sat 27
    • 1C 5C
    • Sun 28 APR 2019
    • Sun 28
    • 1C 5C
    • Mon 29 APR 2019
    • Mon 29
    • 3C 4C
    • Tue 30 APR 2019
    • Tue 30
    • -2C 0C
    • Wed 01 MAY 2019
    • Wed 01
    • -2C 4C
    • Thu 02 MAY 2019
    • Thu 02
    • 1C 9C
    • Fri 03 MAY 2019
    • Fri 03
    • 9C 14C
    • Sat 04 MAY 2019
    • Sat 04
    • 7C 15C
    • Sun 05 MAY 2019
    • Sun 05
    • 9C 13C
    • Mon 06 MAY 2019
    • Mon 06
    • 4C 17C
    • Tue 07 MAY 2019
    • Tue 07
    • 9C 14C

Date:

Time Type 0°C level Temp Chill Snow Cloud Speed Gust Dir Press
3:00 2617m 12°C 12_3 0cm 100% 3mph 3mph 1020mB
6:00 2699m 11°C 11_4 0cm 99% 4mph 9mph 1021mB
9:00 2929m 10°C 10_6 0cm 95% 6mph 13mph 1021mB
12:00 2797m 11°C 11_6 0cm 73% 6mph 14mph 1021mB
15:00 2867m 15°C 15_8 0cm 98% 8mph 15mph 1020mB
18:00 2606m 18°C 18_9 0cm 81% 9mph 14mph 1019mB
21:00 2707m 16°C 16_5 0cm 87% 5mph 12mph 1018mB
0:00 2714m 11°C 11_4 0cm 94% 4mph 5mph 1018mB
3:00 2512m 11°C 11_2 0cm 79% 2mph 2mph 1018mB
6:00 2555m 8°C 8_2 0cm 69% 2mph 3mph 1018mB
9:00 2397m 7°C 7_2 0cm 47% 2mph 4mph 1017mB
12:00 2626m 9°C 9_3 0cm 73% 3mph 5mph 1017mB
15:00 2964m 17°C 17_3 0cm 91% 3mph 4mph 1016mB
18:00 3011m 23°C 23_2 0cm 61% 2mph 3mph 1013mB
21:00 3052m 19°C 19_6 0cm 26% 6mph 9mph 1010mB
0:00 3092m 14°C 14_4 0cm 61% 4mph 5mph 1009mB
3:00 3027m 12°C 12_6 0cm 100% 6mph 30mph 1008mB
6:00 2890m 12°C 12_9 0cm 100% 9mph 30mph 1005mB
9:00 2620m 12°C 12_7 0cm 100% 7mph 21mph 1003mB
12:00 1364m 13°C 13_14 0cm 98% 14mph 25mph 1004mB
15:00 1290m 10°C 10_15 0cm 75% 15mph 25mph 1004mB
18:00 1367m 10°C 10_15 0cm 84% 15mph 25mph 1005mB
21:00 1332m 9°C 9_15 0cm 86% 15mph 26mph 1006mB
0:00 1272m 7°C 7_12 0cm 93% 12mph 26mph 1008mB
3:00 1124m 6°C 6_11 0cm 89% 11mph 24mph 1009mB
6:00 967m 5°C 5_8 0cm 85% 8mph 20mph 1010mB
9:00 919m 3°C 3_7 0cm 13% 7mph 19mph 1011mB
12:00 872m 5°C 5_8 0cm 7% 8mph 16mph 1013mB
15:00 1304m 11°C 11_8 0cm 0% 8mph 14mph 1012mB
18:00 1816m 15°C 15_8 0cm 30% 8mph 14mph 1010mB
21:00 2000m 15°C 15_8 0cm 18% 8mph 14mph 1009mB
0:00 2229m 9°C 9_2 0cm 55% 2mph 3mph 1010mB
3:00 2194m 7°C 7_2 0cm 65% 2mph 3mph 1010mB
6:00 2110m 7°C 7_4 0cm 82% 4mph 5mph 1009mB
9:00 2153m 7°C 7_4 0cm 100% 4mph 13mph 1008mB
12:00 1905m 10°C 10_2 0cm 100% 2mph 3mph 1009mB
15:00 1852m 12°C 12_3 0cm 97% 3mph 5mph 1009mB
18:00 1863m 14°C 14_8 0cm 85% 8mph 11mph 1009mB
21:00 1857m 13°C 13_9 0cm 6% 9mph 15mph 1009mB
0:00 1940m 8°C 8_2 0cm 5% 2mph 3mph 1011mB
3:00 1828m 6°C 6_5 0cm 0% 5mph 6mph 1011mB
6:00 1641m 4°C 4_6 0cm 1% 6mph 27mph 1010mB
9:00 1324m 2°C 2_5 0cm 0% 5mph 23mph 1010mB
12:00 1008m 5°C 5_10 0cm 0% 10mph 24mph 1012mB
15:00 1222m 10°C 10_16 0cm 3% 16mph 27mph 1012mB
18:00 1371m 12°C 12_15 0cm 2% 15mph 25mph 1011mB
21:00 1412m 11°C 11_14 0cm 33% 14mph 23mph 1012mB
0:00 1284m 6°C 6_6 0cm 62% 6mph 20mph 1015mB
3:00 1161m 3°C 3_2 0cm 100% 2mph 3mph 1017mB
6:00 1127m 1°C 1_1 0cm 100% 1mph 2mph 1017mB
9:00 1499m 1°C 1_3 0cm 90% 3mph 3mph 1016mB
12:00 2040m 5°C 5_5 0cm 95% 5mph 9mph 1015mB
15:00 2152m 5°C 5_12 0cm 100% 12mph 27mph 1011mB
18:00 1913m 5°C 5_10 0cm 100% 10mph 27mph 1008mB
21:00 2891m 4°C 4_6 0cm 100% 6mph 24mph 1002mB
0:00 2317m 4°C 4_4 0cm 100% 4mph 7mph 1000mB
3:00 1170m 4°C 4_5 0cm 80% 5mph 25mph 999mB
6:00 908m 3°C 3_8 0cm 61% 8mph 27mph 998mB
9:00 880m 3°C 3_11 0cm 98% 11mph 27mph 998mB
12:00 1027m 4°C 4_10 0cm 99% 10mph 26mph 1000mB
15:00 939m 3°C 3_17 0cm 100% 17mph 33mph 1004mB
18:00 937m 4°C 4_18 0cm 100% 18mph 36mph 1007mB
21:00 1012m 4°C 4_17 0cm 100% 17mph 36mph 1010mB
0:00 830m 2°C 2_15 3cm 97% 15mph 34mph 1013mB
3:00 693m 1°C 1_15 1cm 98% 15mph 33mph 1016mB
6:00 607m 0°C 0_11 1cm 94% 11mph 29mph 1017mB
9:00 380m -1°C -1_9 1cm 97% 9mph 27mph 1019mB
12:00 450m 0°C 0_7 0cm 87% 7mph 19mph 1020mB
15:00 788m 5°C 5_9 0cm 52% 9mph 17mph 1020mB
18:00 1217m 8°C 8_13 0cm 26% 13mph 22mph 1019mB
21:00 1362m 8°C 8_13 0cm 7% 13mph 24mph 1019mB
0:00 1443m 4°C 4_6 0cm 8% 6mph 25mph 1020mB
3:00 1422m 1°C 1_3 0cm 26% 3mph 4mph 1022mB
6:00 362m -1°C -1_1 0cm 44% 1mph 2mph 1022mB
9:00 199m -2°C -2_2 0cm 6% 2mph 3mph 1022mB
12:00 1110m 4°C 4_2 0cm 24% 2mph 4mph 1021mB
15:00 1255m 9°C 9_7 0cm 44% 7mph 10mph 1020mB
18:00 1666m 12°C 12_8 0cm 23% 8mph 11mph 1018mB
21:00 2814m 12°C 12_7 0cm 91% 7mph 11mph 1017mB
0:00 2743m 5°C 5_3 0cm 62% 3mph 5mph 1020mB
Afternoon 0mm 0 3439m 9°C 9_1 0cm 0% 1mph 1mph 1023mB
Morning 0mm 0 3923m 10°C 10_6 0cm 17% 6mph 16mph 1018mB
Afternoon 0mm 0 3527m 14°C 14_7 0cm 53% 7mph 13mph 1017mB
Morning 0.505208mm 5.8125 3606m 13°C 13_6 0cm 75% 6mph 16mph 1015mB
Afternoon 0.0104167mm 0 3277m 15°C 15_3 0cm 51% 3mph 5mph 1023mB
Morning 0.125mm 0 3691m 10°C 10_8 0cm 91% 8mph 26mph 1017mB
Afternoon 0.0260417mm 0.125 4068m 13°C 13_10 0cm 98% 10mph 23mph 1009mB
Morning 0.015625mm 0.125 3161m 14°C 14_12 0cm 78% 12mph 30mph 1012mB
Afternoon 0mm 0 2873m 17°C 17_5 0cm 20% 5mph 12mph 1024mB
Morning 0mm 0 3264m 9°C 9_7 0cm 98% 7mph 20mph 1020mB
Afternoon 0.348958mm 0 3539m 14°C 14_4 0cm 97% 4mph 10mph 1010mB
Morning 0.03125mm 0.125 2041m 13°C 13_12 0cm 44% 12mph 24mph 1013mB

16 day outlook at a glance

Forecast issued: 22/04/2019 08:49:55

Chat

Your comments and questions. In a resort? Let us know what it's like!


Characters left 250

For terms and conditions see Readers Comments on the Cookie and privacy policy page.